Regional Weather Roundup
Issued by NWS

Home | Current Version | Previous Version | Graphics & Text | Print | Product List | Glossary On
Versions: 1 2 3 4 5 6 7 8 9 10 11 12 13 14 15 16 17 18 19 20 21 22 23 24 25 26 27 28 29 30 31 32 33 34 35 36 37 38 39 40 41 42 43 44 45 46 47 48 49 50
000
ASUS45 KPSR 212000
RWRAZ

PRELIMINARY ARIZONA REGIONAL HOURLY WEATHER ROUNDUP
NATIONAL WEATHER SERVICE PHOENIX AZ
100 PM MST THU AUG 21 2014

NOTE: FAIR INDICATES FEW OR NO CLOUDS BELOW 12,000 FEET WITH NO
SIGNIFICANT WEATHER AND/OR OBSTRUCTIONS TO VISIBILITY.

AZZ001>003-036-212100-
NORTHWEST ARIZONA

CITY           SKY/WX    TMP DP  RH WIND       PRES   REMARKS
KINGMAN        HVY RAIN  63  58  83 E8        30.21R
$$

AZZ004>008-015-016-018-212100-
NORTH CENTRAL ARIZONA

CITY           SKY/WX    TMP DP  RH WIND       PRES   REMARKS
GRAND CANYON   PTSUNNY   70  41  34 CALM      30.27F
WILLIAMS       CLOUDY    64  54  68 SW17G23   30.33S
PRESCOTT       CLOUDY    67  51  56 SW18      30.20S
FLAGSTAFF      CLOUDY    62  48  60 S10       30.30S
PAYSON         CLOUDY    77  54  44 SW9G17    30.19S
PAGE           PTSUNNY   83  44  25 N6        30.10F
$$

AZZ009>014-017-212100-
NORTHEAST ARIZONA

CITY           SKY/WX    TMP DP  RH WIND       PRES   REMARKS
WINSLOW        NOT AVBL
SAINT JOHNS    CLOUDY    80  46  30 W6        30.16F
WINDOW ROCK    CLOUDY    77  37  23 SW7       30.24F
$$

AZZ023-212100-
GREATER PHOENIX AREA

CITY           SKY/WX    TMP DP  RH WIND       PRES   REMARKS
PHOENIX        CLOUDY    84  58  40 VRB5      29.96F
GLENDALE       PTSUNNY   81  64  57 NW13      29.96F
DEER VALLEY    LGT RAIN  81  58  45 N17G25    29.96F
SCOTTSDALE     CLOUDY    82  58  43 N14G21    30.00F
CHANDLER       CLOUDY    84  59  42 N10       29.98R
$$

AZZ027-028-212100-
SOUTHWEST MARICOPA COUNTY AND PINAL COUNTY

CITY           SKY/WX    TMP DP  RH WIND       PRES   REMARKS
CASA GRANDE    CLOUDY    84  55  37 N14       29.98F
GILA BEND      MOCLDY    95  54  24 NE8G15    29.93F
$$

AZZ503-504-507>509-212100-
SOUTHEAST ARIZONA

CITY           SKY/WX    TMP DP  RH WIND       PRES   REMARKS
TUCSON         LGT RAIN  83  62  49 N6        30.05S
RYAN FIELD       N/A     84  61  45 SW5       30.04F
NOGALES        LGT RAIN  77  62  59 CALM      30.12R
SAFFORD        MOSUNNY   88  56  33 W14       30.01F
$$

AZZ020-021-025-026-031-212100-
SOUTHWEST ARIZONA

CITY           SKY/WX    TMP DP  RH WIND       PRES   REMARKS
YUMA           PTSUNNY  102  57  22 S15G23    29.82F HX 101
$$

CAZ031-033-041-043-047-048-061-212100-
SOUTHERN CALIFORNIA

CITY           SKY/WX    TMP DP  RH WIND       PRES   REMARKS
DOWNTOWN L.A.  SUNNY     79  62  56 W6        29.94F
L.A. AIRPORT   MOSUNNY   74  61  63 SW14      29.96F
SAN DIEGO      MOSUNNY   75  63  66 NW12      29.95F
BURBANK        SUNNY     81  59  47 S8        29.94F
ONTARIO        MOSUNNY   86  59  39 W9        29.94F
RIVERSIDE      SUNNY     85  59  41 W5        29.93F
PALM SPRINGS   PTSUNNY   96  50  20 N3        29.87F
EL CENTRO NAS  PTSUNNY   97  56  25 W13       29.83F
IMPERIAL       PTSUNNY   95  63  34 W5        29.82F
BLYTHE           N/A     97  56  25 SE6       29.85
$$

NVZ020-UTZ003-212100-
SOUTHERN NEVADA-UTAH

CITY           SKY/WX    TMP DP  RH WIND       PRES   REMARKS
LAS VEGAS      NOT AVBL
SALT LAKE CITY CLOUDY    78  47  33 S5        30.08F
$$

NMZ009-TXZ055-212100-
NEW MEXICO-WEST TEXAS

CITY           SKY/WX    TMP DP  RH WIND       PRES   REMARKS
ALBUQUERQUE    MOSUNNY   87  41  19 CALM      30.13F
EL PASO        MOSUNNY   90  50  25 VRB3      30.05F
$$


........................KEY........................
SKY/WX - SKY CONDITION/WEATHER
TMP    - TEMPERATURE IN FAHRENHEIT
DP     - DEW POINT IN FAHRENHEIT
RH     - RELATIVE HUMIDITY IN PERCENT
WIND   - DIRECTION AND SPEED IN MILES PER HOUR (MPH)
VRB    - VARIABLE WIND DIRECTION
PRES   - MEAN SEA LEVEL PRESSURE IN INCHES OF MERCURY
         F - FALLING PRESSURE   R - RISING PRESSURE
         S - STEADY PRESSURE
VSB    - VISIBILITY IN MILES
HX     - HEAT INDEX IN FAHRENHEIT
WCI    - WIND CHILL INDEX IN FAHRENHEIT
TC     - TEMPERATURE IN CELSIUS WHICH IS ALSO KNOWN AS
         TEMPERATURE IN CENTIGRADE
AFB    - AIR FORCE BASE
         LUKE AFB IS LUKE AIR FORCE BASE
         DAVIS-MONTHAN IS DAVIS-MONTHAN AIR FORCE BASE
NAS    - NAVAL AIR STATION
         EL CENTRO NAS IS EL CENTRO NAVAL AIR STATION
N/A    - NOT AVAILABLE


USA.gov is the U.S. government's official web portal to all federal, state and local government web resources and services.